View from above orbital plane
|
View from above satellite
|
Ground track
|
The orbit data is extracted from the following two-line orbital elements,
1 31114U 07010B 21106.43626955 -.00000019 00000-0 94379-5 0 9996
2 31114 98.2363 304.4989 0060915 103.4497 257.3479 14.19356021725989
Epoch (UTC): | 16 April 2021 10:28:13 |
Eccentricity: | 0.0060915 |
inclination: | 98.2363° |
perigee height: | 783 km |
apogee height: | 871 km |
right ascension of ascending node: | 304.4989° |
argument of perigee: | 103.4497° |
revolutions per day: | 14.19356021 |
mean anomaly at epoch: | 257.3479° |
orbit number at epoch: | 72598 |
The dashed part of the orbit path shows where the satellite is in the earth's shadow,
|
|